SCP
0 0 0 0 0 0 0 0 0 0 0 0 0 0 0 0 0 0 0 0 0 0 0 0 0 0 0 0 0 0 0 0 1 1 0 0 0 0 1 1 1 1 0 0
0 0 -0 0 0 0 0 0 0 0 0 0 0 0 0 0 0 0 0 0 0 0 0 0 0 0 0 0 0 0 0 0 1 0 0 0 0 0 0 0 1 1 0 0
0 0 0 0 0 0 0 0 0 0 0 0 0 0 0 0 0 0 0 0 0 0 0 0 0 0 0 0 0 0 0 0 0 0 1 1 1 1 0 1 1 1 0 0
0 0 0 0 0 0 0 0 0 0 0 0 0 0 0 0 0 0 0 0 0 0 0 0 0 0 0 0 0 0 0 0 0 0 0 0 0 0 0 0 0 1 0 0
0 0 0 0 0 0 0 0 0 0 0 0 0 0 -0 0 0 0 0 0 0 0 0 0 0 0 0 0 0 0 0 0 0 0 0 0 0 0 0 0 0 0 0 0
0 0 0 0 0 0 0 0 0 0 0 0 0 0 -0 -0 -0 -0 0 0 0 0 0 0 0 0 0 0 0 0 0 0 0 0 0 0 0 0 0 0 0 0 0 0
0 0 0 0 0 0 0 0 0 0 0 0 0 0 0 -0 0 0 0 0 0 0 0 0 0 0 0 0 0 0 0 0 0 0 0 0 0 0 0 0 0 0 0 0
0 0 0 0 0 0 0 0 0 0 0 0 0 0 -0 0 0 -0 -0 0 0 0 0 0 0 0 0 -0 -0 0 -0 0 0 0 0 0 0 0 0 0 0 0 0 0
0 0 0 0 0 0 0 0 0 0 0 0 0 0 0 0 -0 0 0 0 0 0 0 -0 0 0 -0 -0 -0 -0 -0 0 0 0 0 0 0 0 0 0 0 0 0 -0
0 0 0 0 0 0 0 0 0 0 0 0 0 0 0 0 0 0 0 0 0 0 0 0 0 -0 -0 -0 -0 -0 -0 -0 -0 0 0 0 0 0 0 0 0 0 0 0
0 0 0 0 0 0 0 0 0 0 0 0 0 0 -0 0 0 0 0 0 0 -0 -0 0 0 -0 -0 -0 -0 -0 -0 -0 -0 0 0 0 0 0 0 0 0 0 -0 0
0 0 0 0 0 0 0 0 0 0 0 0 0 0 0 0 0 0 0 0 0 -0 -0 0 -0 -0 -0 -0 -0 -0 -0 -0 -0 0 0 0 0 0 0 0 0 0 0 0
0 0 0 0 0 0 0 0 0 0 0 0 0 0 0 0 0 0 0 0 0 -0 0 -0 -0 -0 -0 -0 -0 -0 -0 -0 -0 0 -0 0 0 0 0 -0 0 0 0 0
0 0 0 0 0 0 0 0 0 0 0 0 0 0 0 0 0 0 0 0 0 0 0 -0 -0 -0 -0 -0 -0 -0 -0 -0 -0 -0 -0 -0 0 0 0 -0 -0 -0 0 0
0 0 0 0 0 0 0 0 0 0 0 0 0 0 0 0 0 0 0 0 0 0 -0 -0 -0 -0 -0 -0 -0 -0 -0 -0 -0 -0 -0 -0 0 0 -0 -0 0 0 -0 -0
0 0 0 0 0 0 0 0 0 0 0 0 0 0 0 0 0 0 0 0 -0 -0 -0 -0 -0 -0 -0 -0 -0 -0 -0 -0 -0 -0 -0 0 0 -0 -0 -0 -0 -0 -0 -0
0 0 0 0 0 0 0 0 0 0 0 0 0 0 0 0 0 0 0 0 0 0 -0 -0 -0 -0 -0 -0 -0 -0 -0 -0 -0 -0 -0 -0 -0 -0 0 0 -0 0 0 0
0 0 0 0 0 0 0 0 0 0 0 0 0 0 0 -0 0 0 0 0 0 -0 -0 -0 -0 -0 -0 -0 -0 -0 -0 -0 -0 -0 -0 -0 0 -0 0 0 0 0 -0 0
0 0 0 0 0 0 0 0 0 0 0 0 0 0 0 0 -0 0 0 0 0 0 0 -0 -0 -0 -0 -0 -0 -0 -0 -0 -0 -0 -0 -0 0 0 0 0 0 0 0 0
-0 0 0 0 0 0 0 0 0 0 0 0 0 0 0 0 0 0 0 0 0 0 -0 0 -0 -0 -0 -0 -0 -0 -0 -0 -0 -0 -0 -0 0 0 0 0 0 0 0 0
-0 0 0 0 0 0 0 0 0 0 0 0 0 0 0 0 0 0 0 0 0 0 0 0 -0 -0 -0 -0 -0 -0 -0 -0 -0 -0 -0 -0 0 0 0 0 0 0 0 0
0 0 0 0 0 0 0 0 0 0 0 0 0 0 0 0 0 0 0 0 0 0 0 0 -0 -0 -0 -0 -0 -0 -0 -0 -0 -0 -0 -0 -0 0 0 0 0 0 0 0
0 0 0 0 0 0 0 0 0 0 0 0 0 0 0 0 0 0 0 0 0 0 0 0 -0 -0 -0 -0 -0 -0 -0 -0 -0 -0 -0 -0 -0 -0 -0 -0 0 0 0 0
0 0 0 0 0 0 0 0 0 0 0 0 0 0 0 0 0 0 0 0 0 0 -0 0 -0 -0 -0 -0 -0 -0 -0 -0 -0 -0 -0 -0 -0 -0 -0 0 0 0 0 0
0 0 0 0 0 0 0 0 0 0 0 0 0 0 0 0 0 0 0 0 0 0 0 -0 0 -0 -0 -0 -0 -0 -0 -0 -0 -0 -0 -0 -0 -0 -0 0 0 0 0 0
0 0 0 0 0 0 0 0 0 0 0 0 0 0 0 0 0 0 0 0 0 0 0 0 -0 0 -0 -0 -0 -0 -0 -0 -0 -0 -0 -0 -0 -0 0 0 -0 -0 0 -0
Wind_Speed_500mb
59 40 56 86 65 51 47 51 60 50 47 47 53 55 55 54 42 58 61 57 64 65 62 47 36 38 32 35 36 35 42 53 58 54 46 36 31 25 21 22 25 27 27 29
38 60 92 57 56 57 55 56 60 50 41 44 48 54 55 49 49 61 67 64 62 57 49 34 28 22 21 24 27 32 40 51 53 44 35 28 25 21 20 20 23 23 23 26
67 84 53 60 57 64 65 61 51 48 39 41 43 54 56 51 64 72 67 60 54 54 55 36 21 15 16 18 24 34 43 49 49 38 34 27 20 17 14 17 15 16 16 22
62 65 50 66 67 63 62 52 48 44 39 44 40 48 50 45 49 44 58 60 61 48 40 28 19 15 17 21 30 37 44 51 48 38 26 23 16 13 16 14 15 14 14 15
65 47 69 62 78 54 56 33 40 42 39 44 50 36 41 42 50 46 41 50 49 38 27 26 21 21 24 30 38 43 49 48 41 35 23 17 13 11 11 10 13 14 15 10
55 36 39 76 43 51 44 26 38 37 32 38 41 40 39 44 48 43 30 28 28 20 15 21 24 30 35 41 46 48 47 39 34 29 22 18 13 9 9 11 14 14 16 11
49 55 49 41 57 48 45 44 18 24 24 27 32 30 43 43 36 37 33 22 14 15 22 31 36 40 47 50 48 44 40 35 31 25 21 16 10 7 7 7 11 11 11 12
45 46 60 47 60 45 57 51 25 33 27 24 40 20 27 18 27 37 40 28 9 15 28 36 40 45 49 49 46 41 37 33 28 23 22 15 9 5 3 5 4 4 7 12
43 58 52 50 48 54 64 52 49 19 12 16 19 25 31 38 31 20 19 29 17 25 33 39 43 46 48 46 43 39 35 30 26 25 21 17 10 8 4 1 6 6 12 13
19 25 52 68 51 55 59 47 42 25 32 24 15 26 14 2 19 23 17 18 26 34 39 43 45 48 45 42 39 36 31 27 27 25 20 15 10 6 4 6 8 12 14 17
26 16 37 54 46 56 35 44 45 30 20 24 11 13 13 19 10 18 14 21 37 43 44 48 49 46 44 41 37 36 30 28 28 22 20 16 12 7 7 8 10 11 14 15
10 13 23 53 52 45 47 42 47 31 37 17 13 6 4 7 2 2 8 26 40 44 47 51 51 49 46 41 38 36 31 28 26 22 19 14 11 8 8 10 11 13 13 14
9 19 21 40 48 42 56 44 53 30 19 37 21 6 16 5 3 6 18 34 44 47 48 51 50 49 45 41 39 34 32 28 25 21 16 13 9 10 10 14 13 15 14 14
12 20 27 18 46 33 51 55 51 43 22 27 34 24 17 13 20 19 23 29 38 44 49 51 50 48 44 41 39 34 32 28 25 20 17 12 8 11 14 16 16 15 16 15
9 30 31 16 10 10 26 54 48 53 38 30 28 36 26 23 12 11 10 27 37 41 45 49 51 49 45 43 40 34 32 29 26 21 18 12 12 14 19 19 18 18 18 17
13 15 22 27 18 10 14 45 45 45 43 35 23 28 26 21 19 7 3 17 37 42 45 49 51 50 47 46 42 38 34 31 28 24 20 16 16 19 21 23 23 20 18 19
9 9 20 31 27 9 13 32 39 39 45 39 37 30 11 11 10 11 13 4 35 42 46 53 56 54 49 48 45 41 38 35 32 27 23 21 20 23 23 23 24 22 21 20
15 11 13 26 23 23 18 17 26 32 30 27 36 29 22 13 22 25 31 33 19 38 45 51 54 53 49 48 46 41 40 38 35 31 27 24 24 26 25 23 23 22 21 19
24 8 10 13 25 17 22 11 5 9 14 10 7 15 18 24 26 19 21 21 19 32 35 40 51 56 53 52 49 46 44 41 38 35 32 29 26 28 25 22 21 22 20 15
15 14 9 15 34 21 21 13 8 8 13 15 11 14 17 21 15 9 27 25 18 18 36 38 48 55 57 55 53 49 47 45 42 38 36 34 28 28 26 22 21 21 22 18
6 7 14 10 15 14 19 19 9 19 7 16 16 18 20 15 21 45 38 26 17 11 33 41 50 56 58 58 57 53 49 48 44 39 38 38 32 29 24 22 19 21 23 23
4 6 9 8 9 10 32 9 6 15 13 17 19 22 26 29 33 37 32 27 19 8 31 45 53 57 59 61 60 56 52 48 46 43 41 41 35 31 27 24 21 21 24 26
3 7 5 5 7 15 12 23 20 17 17 22 25 28 29 32 32 33 30 24 18 13 30 44 53 55 57 61 61 58 53 52 50 47 44 42 39 36 32 29 26 23 23 23
4 5 4 5 8 12 13 18 24 25 23 25 27 29 31 34 35 34 30 24 17 14 28 44 55 60 65 62 61 57 56 55 53 51 48 44 44 41 36 31 29 24 24 25
7 12 7 1 16 10 7 34 37 34 32 29 30 30 32 34 35 34 33 27 20 17 29 46 58 62 65 63 60 58 58 59 57 53 50 47 43 45 40 36 32 29 26 25
15 13 8 5 8 10 28 37 37 33 37 35 36 35 33 33 38 38 33 27 22 20 30 44 53 57 63 64 61 61 61 62 59 57 54 51 47 45 42 41 36 39 33 34
Wind_Direction_500mb
197 203 216 216 217 234 245 243 245 245 242 245 246 261 269 266 267 270 276 281 281 287 290 283 273 273 254 243 232 215 197 195 194 194 191 197 208 219 231 245 256 266 270 264
188 215 222 219 221 224 235 241 245 251 249 256 267 265 272 268 265 272 275 276 279 277 284 282 266 258 248 229 203 192 187 193 185 185 181 192 201 218 228 246 256 264 265 263
213 223 219 218 222 223 224 232 241 251 262 262 258 266 267 266 261 262 266 263 266 268 280 271 245 225 214 202 186 178 179 182 178 177 182 190 200 213 246 262 265 265 254 260
231 232 219 223 226 217 228 222 243 253 252 254 247 269 267 273 270 264 266 266 265 267 261 246 216 191 184 170 163 166 170 173 180 182 180 183 195 220 236 237 244 249 249 250
223 222 231 224 225 215 234 228 230 238 250 263 257 261 272 269 266 264 259 256 252 252 247 217 192 176 159 154 154 157 163 170 180 180 173 176 188 229 232 239 242 246 246 231
241 230 231 231 224 218 215 209 221 234 243 249 253 253 265 261 262 263 262 259 226 198 193 169 162 153 148 145 146 153 161 167 176 177 172 169 188 206 222 247 258 260 262 229
227 239 249 238 208 201 189 191 196 219 222 247 242 244 253 269 262 256 258 241 168 174 162 156 153 151 148 148 152 155 158 162 169 166 169 172 177 194 230 254 281 263 243 169
222 230 220 213 215 191 193 185 200 211 225 236 217 243 245 275 265 255 242 226 198 164 153 150 152 152 149 152 155 156 157 160 164 169 170 172 166 182 222 294 238 229 177 156
210 232 192 223 214 197 190 211 206 245 266 238 186 239 264 262 257 253 227 214 198 166 152 150 151 149 151 155 156 158 158 162 165 168 170 168 164 160 184 84 113 148 161 171
276 257 225 197 205 208 194 194 201 209 217 216 206 250 246 330 218 214 199 184 171 161 153 152 152 152 155 155 155 157 160 164 166 170 171 170 171 150 123 113 133 144 161 164
276 257 220 186 201 187 191 199 210 202 232 201 230 229 236 259 187 208 218 163 166 159 156 155 155 156 156 155 159 160 164 166 169 169 169 170 170 158 152 153 138 146 163 168
213 280 263 204 203 208 199 197 195 195 193 226 217 229 274 221 249 278 163 156 155 155 157 159 157 157 159 158 163 166 167 169 170 167 168 176 179 168 172 156 146 156 163 161
343 236 226 196 196 210 206 204 197 214 190 205 199 250 204 110 170 140 143 152 154 156 158 157 159 162 160 163 167 170 169 169 168 166 168 174 177 176 156 149 144 152 162 161
261 254 258 211 187 194 204 199 195 202 196 192 212 208 211 120 101 100 133 155 159 160 163 161 164 165 164 167 171 171 171 170 166 166 167 171 161 152 147 143 140 148 153 150
290 235 227 254 326 283 237 199 195 200 213 221 188 220 232 153 73 41 87 166 165 167 169 168 167 167 166 170 172 172 173 168 165 164 163 163 150 141 142 141 137 141 142 145
334 250 242 252 230 236 233 202 199 201 209 221 220 233 235 269 275 275 286 201 184 177 175 174 171 170 171 173 173 173 172 168 165 162 161 149 145 144 142 137 136 136 138 141
311 308 243 231 200 203 222 201 201 204 218 221 218 221 234 230 246 295 14 263 208 184 180 180 176 175 174 175 174 174 171 167 167 164 163 153 147 150 144 142 139 141 143 140
257 316 276 235 165 208 91 163 200 206 219 230 252 260 263 346 322 308 297 281 225 201 189 183 180 176 175 175 174 172 171 170 169 167 166 161 154 152 149 149 148 150 152 156
226 249 278 214 199 161 141 52 326 270 125 28 319 288 305 306 307 276 17 359 252 213 203 195 183 175 173 175 174 172 173 173 174 171 169 165 161 161 156 151 147 152 154 153
203 229 286 228 201 195 56 2 330 265 177 26 337 311 322 324 261 99 2 358 356 202 193 194 188 179 172 175 175 173 175 176 178 176 173 168 163 160 157 153 147 151 150 146
194 206 228 260 205 100 4 330 188 211 86 0 341 329 320 307 312 314 319 320 324 246 198 188 187 186 176 175 176 176 178 181 179 177 174 174 173 169 166 157 150 150 146 145
199 194 177 227 260 130 355 58 307 27 8 355 347 344 325 312 307 306 308 307 303 282 198 192 188 187 181 177 178 179 182 180 179 178 177 177 178 177 180 170 156 151 153 150
218 358 7 333 32 1 13 62 53 25 6 360 344 343 334 323 318 312 309 301 286 254 204 195 190 187 186 183 181 182 182 179 180 180 181 181 180 177 182 176 170 160 157 162
4 324 306 296 24 350 61 43 22 6 355 354 349 344 341 337 329 322 316 308 293 252 208 197 192 190 187 187 186 185 181 179 182 182 183 183 183 183 183 183 182 178 174 172
355 304 344 62 10 326 180 357 351 347 344 346 349 347 346 343 341 334 321 310 286 257 215 200 197 195 191 186 189 185 184 181 183 183 185 185 186 188 190 187 191 191 191 185
359 359 2 10 21 301 300 320 330 338 338 340 342 343 346 347 348 345 336 316 288 257 217 208 203 197 192 189 188 188 185 185 184 184 187 189 189 192 195 195 198 194 196 197
Wind_Speed_850mb
59 40 56 86 65 51 47 51 60 50 47 47 53 55 55 54 42 58 61 57 64 65 62 47 36 38 32 35 36 35 42 53 58 54 46 36 31 25 21 22 25 27 27 29
38 60 92 57 56 57 55 56 60 50 41 44 48 54 55 49 49 61 67 64 62 57 49 34 28 22 21 24 27 32 40 51 53 44 35 28 25 21 20 20 23 23 23 26
67 84 53 60 57 64 65 61 51 48 39 41 43 54 56 51 64 72 67 60 54 54 55 36 21 15 16 18 24 34 43 49 49 38 34 27 20 17 14 17 15 16 16 22
62 65 50 66 67 63 62 52 48 44 39 44 40 48 50 45 49 44 58 60 61 48 40 28 19 15 17 21 30 37 44 51 48 38 26 23 16 13 16 14 15 14 14 15
65 47 69 62 78 54 56 33 40 42 39 44 50 36 41 42 50 46 41 50 49 38 27 26 21 21 24 30 38 43 49 48 41 35 23 17 13 11 11 10 13 14 15 10
55 36 39 76 43 51 44 26 38 37 32 38 41 40 39 44 48 43 30 28 28 20 15 21 24 30 35 41 46 48 47 39 34 29 22 18 13 9 9 11 14 14 16 11
49 55 49 41 57 48 45 44 18 24 24 27 32 30 43 43 36 37 33 22 14 15 22 31 36 40 47 50 48 44 40 35 31 25 21 16 10 7 7 7 11 11 11 12
45 46 60 47 60 45 57 51 25 33 27 24 40 20 27 18 27 37 40 28 9 15 28 36 40 45 49 49 46 41 37 33 28 23 22 15 9 5 3 5 4 4 7 12
43 58 52 50 48 54 64 52 49 19 12 16 19 25 31 38 31 20 19 29 17 25 33 39 43 46 48 46 43 39 35 30 26 25 21 17 10 8 4 1 6 6 12 13
19 25 52 68 51 55 59 47 42 25 32 24 15 26 14 2 19 23 17 18 26 34 39 43 45 48 45 42 39 36 31 27 27 25 20 15 10 6 4 6 8 12 14 17
26 16 37 54 46 56 35 44 45 30 20 24 11 13 13 19 10 18 14 21 37 43 44 48 49 46 44 41 37 36 30 28 28 22 20 16 12 7 7 8 10 11 14 15
10 13 23 53 52 45 47 42 47 31 37 17 13 6 4 7 2 2 8 26 40 44 47 51 51 49 46 41 38 36 31 28 26 22 19 14 11 8 8 10 11 13 13 14
9 19 21 40 48 42 56 44 53 30 19 37 21 6 16 5 3 6 18 34 44 47 48 51 50 49 45 41 39 34 32 28 25 21 16 13 9 10 10 14 13 15 14 14
12 20 27 18 46 33 51 55 51 43 22 27 34 24 17 13 20 19 23 29 38 44 49 51 50 48 44 41 39 34 32 28 25 20 17 12 8 11 14 16 16 15 16 15
9 30 31 16 10 10 26 54 48 53 38 30 28 36 26 23 12 11 10 27 37 41 45 49 51 49 45 43 40 34 32 29 26 21 18 12 12 14 19 19 18 18 18 17
13 15 22 27 18 10 14 45 45 45 43 35 23 28 26 21 19 7 3 17 37 42 45 49 51 50 47 46 42 38 34 31 28 24 20 16 16 19 21 23 23 20 18 19
9 9 20 31 27 9 13 32 39 39 45 39 37 30 11 11 10 11 13 4 35 42 46 53 56 54 49 48 45 41 38 35 32 27 23 21 20 23 23 23 24 22 21 20
15 11 13 26 23 23 18 17 26 32 30 27 36 29 22 13 22 25 31 33 19 38 45 51 54 53 49 48 46 41 40 38 35 31 27 24 24 26 25 23 23 22 21 19
24 8 10 13 25 17 22 11 5 9 14 10 7 15 18 24 26 19 21 21 19 32 35 40 51 56 53 52 49 46 44 41 38 35 32 29 26 28 25 22 21 22 20 15
15 14 9 15 34 21 21 13 8 8 13 15 11 14 17 21 15 9 27 25 18 18 36 38 48 55 57 55 53 49 47 45 42 38 36 34 28 28 26 22 21 21 22 18
6 7 14 10 15 14 19 19 9 19 7 16 16 18 20 15 21 45 38 26 17 11 33 41 50 56 58 58 57 53 49 48 44 39 38 38 32 29 24 22 19 21 23 23
4 6 9 8 9 10 32 9 6 15 13 17 19 22 26 29 33 37 32 27 19 8 31 45 53 57 59 61 60 56 52 48 46 43 41 41 35 31 27 24 21 21 24 26
3 7 5 5 7 15 12 23 20 17 17 22 25 28 29 32 32 33 30 24 18 13 30 44 53 55 57 61 61 58 53 52 50 47 44 42 39 36 32 29 26 23 23 23
4 5 4 5 8 12 13 18 24 25 23 25 27 29 31 34 35 34 30 24 17 14 28 44 55 60 65 62 61 57 56 55 53 51 48 44 44 41 36 31 29 24 24 25
7 12 7 1 16 10 7 34 37 34 32 29 30 30 32 34 35 34 33 27 20 17 29 46 58 62 65 63 60 58 58 59 57 53 50 47 43 45 40 36 32 29 26 25
15 13 8 5 8 10 28 37 37 33 37 35 36 35 33 33 38 38 33 27 22 20 30 44 53 57 63 64 61 61 61 62 59 57 54 51 47 45 42 41 36 39 33 34
Wind_Direction_850mb
197 203 216 216 217 234 245 243 245 245 242 245 246 261 269 266 267 270 276 281 281 287 290 283 273 273 254 243 232 215 197 195 194 194 191 197 208 219 231 245 256 266 270 264
188 215 222 219 221 224 235 241 245 251 249 256 267 265 272 268 265 272 275 276 279 277 284 282 266 258 248 229 203 192 187 193 185 185 181 192 201 218 228 246 256 264 265 263
213 223 219 218 222 223 224 232 241 251 262 262 258 266 267 266 261 262 266 263 266 268 280 271 245 225 214 202 186 178 179 182 178 177 182 190 200 213 246 262 265 265 254 260
231 232 219 223 226 217 228 222 243 253 252 254 247 269 267 273 270 264 266 266 265 267 261 246 216 191 184 170 163 166 170 173 180 182 180 183 195 220 236 237 244 249 249 250
223 222 231 224 225 215 234 228 230 238 250 263 257 261 272 269 266 264 259 256 252 252 247 217 192 176 159 154 154 157 163 170 180 180 173 176 188 229 232 239 242 246 246 231
241 230 231 231 224 218 215 209 221 234 243 249 253 253 265 261 262 263 262 259 226 198 193 169 162 153 148 145 146 153 161 167 176 177 172 169 188 206 222 247 258 260 262 229
227 239 249 238 208 201 189 191 196 219 222 247 242 244 253 269 262 256 258 241 168 174 162 156 153 151 148 148 152 155 158 162 169 166 169 172 177 194 230 254 281 263 243 169
222 230 220 213 215 191 193 185 200 211 225 236 217 243 245 275 265 255 242 226 198 164 153 150 152 152 149 152 155 156 157 160 164 169 170 172 166 182 222 294 238 229 177 156
210 232 192 223 214 197 190 211 206 245 266 238 186 239 264 262 257 253 227 214 198 166 152 150 151 149 151 155 156 158 158 162 165 168 170 168 164 160 184 84 113 148 161 171
276 257 225 197 205 208 194 194 201 209 217 216 206 250 246 330 218 214 199 184 171 161 153 152 152 152 155 155 155 157 160 164 166 170 171 170 171 150 123 113 133 144 161 164
276 257 220 186 201 187 191 199 210 202 232 201 230 229 236 259 187 208 218 163 166 159 156 155 155 156 156 155 159 160 164 166 169 169 169 170 170 158 152 153 138 146 163 168
213 280 263 204 203 208 199 197 195 195 193 226 217 229 274 221 249 278 163 156 155 155 157 159 157 157 159 158 163 166 167 169 170 167 168 176 179 168 172 156 146 156 163 161
343 236 226 196 196 210 206 204 197 214 190 205 199 250 204 110 170 140 143 152 154 156 158 157 159 162 160 163 167 170 169 169 168 166 168 174 177 176 156 149 144 152 162 161
261 254 258 211 187 194 204 199 195 202 196 192 212 208 211 120 101 100 133 155 159 160 163 161 164 165 164 167 171 171 171 170 166 166 167 171 161 152 147 143 140 148 153 150
290 235 227 254 326 283 237 199 195 200 213 221 188 220 232 153 73 41 87 166 165 167 169 168 167 167 166 170 172 172 173 168 165 164 163 163 150 141 142 141 137 141 142 145
334 250 242 252 230 236 233 202 199 201 209 221 220 233 235 269 275 275 286 201 184 177 175 174 171 170 171 173 173 173 172 168 165 162 161 149 145 144 142 137 136 136 138 141
311 308 243 231 200 203 222 201 201 204 218 221 218 221 234 230 246 295 14 263 208 184 180 180 176 175 174 175 174 174 171 167 167 164 163 153 147 150 144 142 139 141 143 140
257 316 276 235 165 208 91 163 200 206 219 230 252 260 263 346 322 308 297 281 225 201 189 183 180 176 175 175 174 172 171 170 169 167 166 161 154 152 149 149 148 150 152 156
226 249 278 214 199 161 141 52 326 270 125 28 319 288 305 306 307 276 17 359 252 213 203 195 183 175 173 175 174 172 173 173 174 171 169 165 161 161 156 151 147 152 154 153
203 229 286 228 201 195 56 2 330 265 177 26 337 311 322 324 261 99 2 358 356 202 193 194 188 179 172 175 175 173 175 176 178 176 173 168 163 160 157 153 147 151 150 146
194 206 228 260 205 100 4 330 188 211 86 0 341 329 320 307 312 314 319 320 324 246 198 188 187 186 176 175 176 176 178 181 179 177 174 174 173 169 166 157 150 150 146 145
199 194 177 227 260 130 355 58 307 27 8 355 347 344 325 312 307 306 308 307 303 282 198 192 188 187 181 177 178 179 182 180 179 178 177 177 178 177 180 170 156 151 153 150
218 358 7 333 32 1 13 62 53 25 6 360 344 343 334 323 318 312 309 301 286 254 204 195 190 187 186 183 181 182 182 179 180 180 181 181 180 177 182 176 170 160 157 162
4 324 306 296 24 350 61 43 22 6 355 354 349 344 341 337 329 322 316 308 293 252 208 197 192 190 187 187 186 185 181 179 182 182 183 183 183 183 183 183 182 178 174 172
355 304 344 62 10 326 180 357 351 347 344 346 349 347 346 343 341 334 321 310 286 257 215 200 197 195 191 186 189 185 184 181 183 183 185 185 186 188 190 187 191 191 191 185
359 359 2 10 21 301 300 320 330 338 338 340 342 343 346 347 348 345 336 316 288 257 217 208 203 197 192 189 188 188 185 185 184 184 187 189 189 192 195 195 198 194 196 197